M I D A S
Marine Information and Data Acquisition System
Tripno 1151 of the Zeeleeuw from 2006-08-23 06:29:35 to 2006-08-23 13:17:47
Back to CruiseResearch ActivitiesStationsMapUnderway DataData graphs

EquipmentUnitsComments
TimeDGPSUTC
LatitudeDGPSDM.mWGS84
LongitudeDGPSDM.mWGS84
SpeedMeteo Stationm/sRelative wind speed
DirectionMeteo StationdegRelative wind direction
TemperatureMeteo Stationdeg CelciusAir temperature
PressureMeteo StationPaAtmospheric pressure
HumidityMeteo Station%Relative humidity
Missing or incorrect values are displayed as -999
Metereological data collected by the RV Zeeleeuw from 2006-08-23 06:31:14 to 2006-08-23 13:29:55
Time Latitude Longitude Speed Direction Temperature Pressure Humidity
2006-08-23 06:32 51°13.61 2°56.063 3.6 31 13.7 101580 98
2006-08-23 06:33 51°13.631 2°55.976 2.4 36 13.7 101580 98
2006-08-23 06:34 51°13.674 2°55.868 3.7 40 13.8 101580 98
2006-08-23 06:35 51°13.7 2°55.773 3 39 13.8 101580 98
2006-08-23 06:36 51°13.709 2°55.753 2.4 57 13.8 101580 98
2006-08-23 06:37 51°13.705 2°55.743 2 58 13.9 101580 98
2006-08-23 06:38 51°13.719 2°55.733 1.1 304 14 101580 98
2006-08-23 06:39 51°13.779 2°55.674 2.3 303 14.1 101580 98
2006-08-23 06:40 51°13.873 2°55.602 3.3 307 14.2 101580 98
2006-08-23 06:41 51°13.975 2°55.53 3.6 303 14.2 101570 98
2006-08-23 06:42 51°14.084 2°55.452 3.4 308 14.3 101580 98
2006-08-23 06:43 51°14.205 2°55.351 3.3 308 14.3 101580 97
2006-08-23 06:44 51°14.312 2°55.172 5.8 303 14.3 101560 97
2006-08-23 06:45 51°14.432 2°54.988 6.4 306 14.4 101570 97
2006-08-23 06:46 51°14.58 2°54.796 6.4 305 14.4 101570 97
2006-08-23 06:47 51°14.737 2°54.606 6 303 14.4 101570 97
2006-08-23 06:48 51°14.893 2°54.423 6.6 303 14.4 101570 97
2006-08-23 06:49 51°15.049 2°54.242 7.1 309 14.5 101560 97
2006-08-23 06:50 51°15.206 2°54.059 6.9 308 14.5 101570 97
2006-08-23 06:51 51°15.37 2°53.877 7.3 309 14.6 101570 97
2006-08-23 06:52 51°15.533 2°53.7 7 306 14.6 101570 97
2006-08-23 06:53 51°15.7 2°53.531 6.9 304 14.7 101560 97
2006-08-23 06:54 51°15.863 2°53.361 6.9 33 14.7 101550 97
2006-08-23 06:55 51°16.036 2°53.208 7.4 302 14.9 101560 97
2006-08-23 06:56 51°16.205 2°53.044 8.2 303 15 101560 98
2006-08-23 06:57 51°16.373 2°52.865 8 304 15 101560 97
2006-08-23 06:58 51°16.539 2°52.721 7.2 308 15.1 101550 97
2006-08-23 06:59 51°16.711 2°52.569 6.2 309 15.1 101560 97
2006-08-23 07:00 51°16.875 2°52.408 7.6 302 15.2 101550 97
2006-08-23 07:01 51°17.037 2°52.257 8 305 15.3 101560 98
2006-08-23 07:02 51°17.138 2°52.163 6.2 306 15.4 101560 98
2006-08-23 07:03 51°17.219 2°52.106 3.6 60 15.4 101560 98
2006-08-23 07:04 51°17.289 2°52.121 4 59 15.5 101560 98
2006-08-23 07:05 51°17.319 2°52.128 5.1 51 15.5 101570 97
2006-08-23 07:06 51°17.319 2°52.134 5.5 53 15.6 101560 97
2006-08-23 07:07 51°17.322 2°52.168 5.1 56 15.6 101550 97
2006-08-23 07:08 51°17.358 2°52.256 3 53 15.6 101550 97
2006-08-23 07:09 51°17.393 2°52.34 3.7 53 15.7 101560 97
2006-08-23 07:10 51°17.404 2°52.391 5.3 44 15.7 101550 97
2006-08-23 07:11 51°17.396 2°52.396 6.8 38 15.7 101550 97
2006-08-23 07:12 51°17.401 2°52.455 4.2 38 15.7 101550 97
2006-08-23 07:13 51°17.452 2°52.576 3.4 39 15.6 101550 97
2006-08-23 07:14 51°17.531 2°52.662 2.6 51 15.6 101550 97
2006-08-23 07:15 51°17.582 2°52.724 5.1 58 15.7 101550 97
2006-08-23 07:16 51°17.606 2°52.764 4.8 56 15.7 101550 97
2006-08-23 07:17 51°17.606 2°52.767 4.8 53 16 101550 98
2006-08-23 07:18 51°17.632 2°52.809 3.8 40 16.1 101550 97
2006-08-23 07:19 51°17.697 2°52.986 1.9 43 16.1 101550 97
2006-08-23 07:20 51°17.789 2°53.175 1.4 32 16.1 101560 97
2006-08-23 07:21 51°17.883 2°53.36 2.2 53 16.1 101560 97
2006-08-23 07:22 51°17.931 2°53.466 4.1 54 16.1 101560 96
2006-08-23 07:23 51°17.97 2°53.512 4.8 52 16.1 101560 96
2006-08-23 07:24 51°18 2°53.551 6.8 55 16.2 101550 97
2006-08-23 07:25 51°18.008 2°53.585 6.5 57 16.1 101550 96
2006-08-23 07:26 51°17.999 2°53.592 5.7 36 16.1 101540 96
2006-08-23 07:27 51°17.981 2°53.618 6.7 22 16.1 101550 96
2006-08-23 07:28 51°17.898 2°53.695 8.7 349 16.1 101540 96
2006-08-23 07:29 51°17.732 2°53.609 12.3 333 16.1 101530 96
2006-08-23 07:30 51°17.545 2°53.42 12.7 330 16 101530 96
2006-08-23 07:31 51°17.376 2°53.208 12.1 328 16 101530 96
2006-08-23 07:32 51°17.204 2°53.004 12.9 329 16 101530 96
2006-08-23 07:33 51°17.031 2°52.801 12.7 328 15.9 101530 96
2006-08-23 07:34 51°16.862 2°52.591 12.6 329 15.9 101520 96
2006-08-23 07:35 51°16.694 2°52.38 12.1 330 15.9 101530 96
2006-08-23 07:36 51°16.528 2°52.174 11.9 328 15.9 101530 95
2006-08-23 07:37 51°16.358 2°51.959 11.6 329 15.9 101530 95
2006-08-23 07:38 51°16.192 2°51.747 12 329 15.8 101530 95
2006-08-23 07:39 51°16.032 2°51.522 12.3 331 15.9 101530 95
2006-08-23 07:40 51°15.867 2°51.305 12.5 331 15.9 101530 95
2006-08-23 07:41 51°15.738 2°51.134 9.3 332 15.9 101540 95
2006-08-23 07:42 51°15.657 2°51.019 7.4 327 15.9 101530 95
2006-08-23 07:43 51°15.619 2°50.93 6.5 307 16 101540 95
2006-08-23 07:44 51°15.607 2°50.896 7.2 307 16 101560 95
2006-08-23 07:45 51°15.595 2°50.885 7.5 305 16 101560 95
2006-08-23 07:46 51°15.622 2°50.838 3.7 308 16.1 101550 96
2006-08-23 07:47 51°15.703 2°50.909 3.5 33 16.1 101560 95
2006-08-23 07:48 51°15.759 2°51.095 4.3 25 16.1 101560 95
2006-08-23 07:49 51°15.805 2°51.255 4.5 30 16.1 101560 95
2006-08-23 07:50 51°15.804 2°51.313 7 40 16.1 101550 95
2006-08-23 07:51 51°15.797 2°51.321 6.9 34 16.1 101540 95
2006-08-23 07:52 51°15.81 2°51.408 2.2 51 16 101560 95
2006-08-23 07:53 51°15.898 2°51.577 1.3 34 16.1 101560 95
2006-08-23 07:54 51°15.997 2°51.768 1.6 42 16.1 101550 95
2006-08-23 07:55 51°16.071 2°51.872 2.1 53 16.2 101550 95
2006-08-23 07:56 51°16.11 2°51.927 4.2 35 16.3 101550 95
2006-08-23 07:57 51°16.126 2°51.964 5 33 16.5 101550 95
2006-08-23 07:58 51°16.125 2°51.971 3.8 36 16.4 101550 94
2006-08-23 07:59 51°16.146 2°52.016 3.4 33 16.4 101550 94
2006-08-23 08:00 51°16.214 2°52.143 1.9 36 16.4 101550 94
2006-08-23 08:01 51°16.272 2°52.255 3.9 34 16.4 101550 94
2006-08-23 08:02 51°16.287 2°52.299 5.4 37 16.4 101550 94
2006-08-23 08:03 51°16.279 2°52.31 5.9 29 16.4 101530 94
2006-08-23 08:04 51°16.282 2°52.359 2.1 38 16.3 101550 93
2006-08-23 08:05 51°16.336 2°52.416 3.9 270 16.4 101550 94
2006-08-23 08:06 51°16.387 2°52.423 3.1 39 16.4 101550 94
2006-08-23 08:07 51°16.407 2°52.437 5.4 40 16.4 101540 94
2006-08-23 08:08 51°16.401 2°52.437 5.9 39 16.4 101540 94
2006-08-23 08:09 51°16.394 2°52.437 6 37 16.4 101540 94
2006-08-23 08:10 51°16.385 2°52.437 6 31 16.4 101540 94
2006-08-23 08:11 51°16.376 2°52.436 5.4 24 16.4 101540 94
2006-08-23 08:12 51°16.367 2°52.433 6 21 16.4 101540 94
2006-08-23 08:13 51°16.358 2°52.428 5.7 20 16.4 101540 95
2006-08-23 08:14 51°16.349 2°52.424 5.7 21 16.4 101550 94
2006-08-23 08:15 51°16.341 2°52.421 6.4 16 16.3 101540 94
2006-08-23 08:16 51°16.333 2°52.417 6.4 16 16.3 101540 94
2006-08-23 08:17 51°16.325 2°52.414 6.4 17 16.3 101550 94
2006-08-23 08:18 51°16.316 2°52.411 6.8 18 16.4 101540 94
2006-08-23 08:19 51°16.308 2°52.408 5.7 23 16.5 101540 94
2006-08-23 08:20 51°16.299 2°52.405 5.8 13 16.6 101540 95
2006-08-23 08:21 51°16.292 2°52.402 6.6 19 16.6 101530 95
2006-08-23 08:22 51°16.281 2°52.405 7.2 18 16.7 101530 95
2006-08-23 08:23 51°16.263 2°52.42 6.9 25 16.6 101530 94
2006-08-23 08:24 51°16.247 2°52.446 6.2 40 16.6 101540 94
2006-08-23 08:25 51°16.243 2°52.474 6.2 40 16.7 101530 94
2006-08-23 08:26 51°16.252 2°52.492 6.7 39 16.7 101550 95
2006-08-23 08:27 51°16.269 2°52.493 6.8 35 16.7 101550 94
2006-08-23 08:28 51°16.292 2°52.488 5.9 33 16.7 101550 94
2006-08-23 08:29 51°16.324 2°52.493 5.9 33 16.7 101540 94
2006-08-23 08:30 51°16.363 2°52.524 4.2 34 16.7 101540 94
2006-08-23 08:31 51°16.403 2°52.559 5.8 37 16.7 101550 94
2006-08-23 08:32 51°16.417 2°52.567 6.1 35 16.7 101550 94
2006-08-23 08:33 51°16.422 2°52.564 6.1 39 16.7 101550 94
2006-08-23 08:34 51°16.435 2°52.558 5.4 40 16.8 101540 95
2006-08-23 08:35 51°16.462 2°52.595 6.1 32 16.8 101540 95
2006-08-23 08:36 51°16.458 2°52.603 7.1 33 16.9 101530 94
2006-08-23 08:37 51°16.45 2°52.605 6.5 27 16.9 101530 94
2006-08-23 08:38 51°16.438 2°52.618 6.7 42 16.9 101530 94
2006-08-23 08:39 51°16.437 2°52.656 2.9 37 17 101540 95
2006-08-23 08:40 51°16.463 2°52.671 5.3 38 17 101540 94
2006-08-23 08:41 51°16.493 2°52.69 4.4 39 17 101540 94
2006-08-23 08:42 51°16.508 2°52.707 5.7 33 17.1 101540 95
2006-08-23 08:43 51°16.513 2°52.709 6 35 17 101540 94
2006-08-23 08:44 51°16.525 2°52.71 4.8 39 17.1 101550 94
2006-08-23 08:45 51°16.523 2°52.708 4.8 32 17.1 101540 94
2006-08-23 08:46 51°16.51 2°52.694 6.1 35 17.2 101540 94
2006-08-23 08:47 51°16.51 2°52.72 5.1 39 17.1 101530 93
2006-08-23 08:48 51°16.518 2°52.757 3.8 39 17.1 101540 93
2006-08-23 08:49 51°16.521 2°52.785 2.7 39 17.2 101550 93
2006-08-23 08:50 51°16.52 2°52.797 6.2 33 17.3 101540 92
2006-08-23 08:51 51°16.52 2°52.804 6.6 37 17.3 101550 92
2006-08-23 08:52 51°16.506 2°52.798 7 40 17.2 101550 92
2006-08-23 08:53 51°16.508 2°52.796 7.4 260 17.3 101550 92
2006-08-23 08:54 51°16.53 2°52.769 7.5 259 17.2 101540 92
2006-08-23 08:55 51°16.555 2°52.758 7.3 42 17.3 101550 92
2006-08-23 08:56 51°16.571 2°52.761 6.5 270 17.3 101540 92
2006-08-23 08:57 51°16.577 2°52.76 6 266 17.3 101540 92
2006-08-23 08:58 51°16.591 2°52.764 6.1 35 17.3 101550 91
2006-08-23 08:59 51°16.613 2°52.848 1.8 38 17.3 101540 91
2006-08-23 09:00 51°16.646 2°52.985 3.3 32 17.4 101540 92
2006-08-23 09:01 51°16.668 2°53.06 5.6 33 17.5 101530 91
2006-08-23 09:02 51°16.672 2°53.069 6.2 33 17.5 101540 91
2006-08-23 09:03 51°16.67 2°53.067 6.4 34 17.4 101540 91
2006-08-23 09:04 51°16.685 2°53.083 4.1 33 17.3 101540 91
2006-08-23 09:05 51°16.746 2°53.186 2.6 40 17.5 101530 92
2006-08-23 09:06 51°16.82 2°53.319 3.3 39 17.4 101540 91
2006-08-23 09:07 51°16.87 2°53.403 4.9 40 17.4 101540 90
2006-08-23 09:08 51°16.866 2°53.405 7.4 33 17.4 101530 91
2006-08-23 09:09 51°16.859 2°53.402 7.4 270 17.4 101530 91
2006-08-23 09:10 51°16.851 2°53.399 5.9 263 17.4 101540 91
2006-08-23 09:11 51°16.874 2°53.397 5.1 41 17.4 101530 91
2006-08-23 09:12 51°16.922 2°53.478 4.3 40 17.4 101530 91
2006-08-23 09:13 51°17.004 2°53.617 3.5 38 17.5 101530 91
2006-08-23 09:14 51°17.053 2°53.732 4.9 40 17.4 101530 90
2006-08-23 09:15 51°17.085 2°53.83 2.3 34 17.3 101530 89
2006-08-23 09:16 51°17.102 2°53.93 3.1 34 17.5 101530 90
2006-08-23 09:17 51°17.131 2°54.032 2.3 34 17.7 101530 90
2006-08-23 09:18 51°17.181 2°54.132 6 41 17.6 101540 88
2006-08-23 09:19 51°17.223 2°54.173 5.8 34 17.6 101530 88
2006-08-23 09:20 51°17.244 2°54.216 4.7 39 17.6 101530 88
2006-08-23 09:21 51°17.247 2°54.235 3.3 40 17.4 101530 88
2006-08-23 09:22 51°17.245 2°54.252 3.9 40 17.7 101530 90
2006-08-23 09:23 51°17.278 2°54.278 3.6 262 17.7 101530 87
2006-08-23 09:24 51°17.321 2°54.287 5.1 38 17.7 101530 87
2006-08-23 09:25 51°17.356 2°54.305 5.7 41 17.7 101530 88
2006-08-23 09:26 51°17.363 2°54.318 4 38 17.6 101520 87
2006-08-23 09:27 51°17.362 2°54.336 5.4 40 17.7 101530 89
2006-08-23 09:28 51°17.338 2°54.439 4.9 27 17.7 101520 86
2006-08-23 09:29 51°17.285 2°54.647 6.6 10 17.7 101520 87
2006-08-23 09:30 51°17.168 2°54.851 8.7 360 17.7 101510 87
2006-08-23 09:31 51°17.035 2°54.945 7.5 2 17.6 101500 87
2006-08-23 09:32 51°16.946 2°54.992 7.3 5 17.5 101510 88
2006-08-23 09:33 51°16.887 2°54.993 7.3 358 17.4 101500 89
2006-08-23 09:34 51°16.866 2°54.988 4.7 5 17.3 101500 89
2006-08-23 09:35 51°16.86 2°54.983 6.7 14 17.4 101510 89
2006-08-23 09:36 51°16.817 2°54.97 7.9 346 17.3 101510 89
2006-08-23 09:37 51°16.773 2°54.905 7.7 332 17.4 101500 89
2006-08-23 09:38 51°16.745 2°54.835 7.4 325 17.5 101510 90
2006-08-23 09:39 51°16.725 2°54.774 7 324 17.6 101500 90
2006-08-23 09:40 51°16.716 2°54.78 6.3 317 17.6 101510 89
2006-08-23 09:41 51°16.706 2°54.769 7.6 34 17.6 101510 89
2006-08-23 09:42 51°16.679 2°54.667 9.5 328 17.6 101500 88
2006-08-23 09:43 51°16.616 2°54.542 7.8 339 17.6 101490 88
2006-08-23 09:44 51°16.542 2°54.421 10.1 341 17.7 101500 88
2006-08-23 09:45 51°16.466 2°54.295 8.4 341 17.7 101490 87
2006-08-23 09:46 51°16.411 2°54.186 8.4 331 17.7 101500 87
2006-08-23 09:47 51°16.371 2°54.102 7.5 332 17.7 101490 86
2006-08-23 09:48 51°16.352 2°54.034 4.9 37 17.6 101500 86
2006-08-23 09:49 51°16.342 2°54.035 6.2 239 17.7 101510 86
2006-08-23 09:50 51°16.33 2°54.04 6.5 244 17.7 101510 87
2006-08-23 09:51 51°16.33 2°54.02 6.1 231 17.7 101500 85
2006-08-23 09:52 51°16.322 2°53.972 7 327 17.8 101490 85
2006-08-23 09:53 51°16.291 2°53.92 7.5 337 17.8 101500 85
2006-08-23 09:54 51°16.251 2°53.859 7.5 330 17.8 101490 85
2006-08-23 09:55 51°16.233 2°53.806 6.4 316 17.7 101490 85
2006-08-23 09:56 51°16.228 2°53.802 6.8 243 17.8 101500 85
2006-08-23 09:57 51°16.232 2°53.788 6.2 250 17.8 101490 85
2006-08-23 09:58 51°16.235 2°53.783 5.4 251 17.9 101500 85
2006-08-23 09:59 51°16.236 2°53.783 6.9 259 18 101490 85
2006-08-23 10:00 51°16.236 2°53.785 8.2 301 18 101500 84
2006-08-23 10:01 51°16.235 2°53.79 6.5 252 18 101500 83
2006-08-23 10:02 51°16.232 2°53.797 5.6 261 18 101500 83
2006-08-23 10:03 51°16.228 2°53.807 6.8 259 18.1 101500 83
2006-08-23 10:04 51°16.224 2°53.817 4.2 301 18.1 101490 82
2006-08-23 10:05 51°16.219 2°53.829 4.5 263 18.2 101500 83
2006-08-23 10:06 51°16.214 2°53.839 3.5 264 18.1 101490 83
2006-08-23 10:07 51°16.208 2°53.851 4.3 39 18.2 101490 84
2006-08-23 10:08 51°16.202 2°53.863 5.4 268 18.1 101500 83
2006-08-23 10:09 51°16.197 2°53.877 5.4 268 18.1 101500 82
2006-08-23 10:10 51°16.191 2°53.89 5.6 38 18 101500 82
2006-08-23 10:11 51°16.186 2°53.902 5.4 269 18 101500 82
2006-08-23 10:12 51°16.181 2°53.915 7.7 270 18 101500 82
2006-08-23 10:13 51°16.176 2°53.929 6.2 268 18 101490 82
2006-08-23 10:14 51°16.172 2°53.942 6.1 268 17.9 101500 81
2006-08-23 10:15 51°16.168 2°53.955 5.9 268 17.9 101500 80
2006-08-23 10:16 51°16.164 2°53.968 6 266 17.9 101500 81
2006-08-23 10:17 51°16.16 2°53.982 5.9 265 17.9 101490 81
2006-08-23 10:18 51°16.155 2°53.995 4.4 261 17.9 101490 81
2006-08-23 10:19 51°16.15 2°54.011 5.4 267 18 101500 82
2006-08-23 10:20 51°16.145 2°54.027 5.2 265 17.9 101500 80
2006-08-23 10:21 51°16.14 2°54.042 4.8 265 17.9 101490 81
2006-08-23 10:22 51°16.135 2°54.059 4 264 17.9 101500 81
2006-08-23 10:23 51°16.13 2°54.076 4.8 264 17.9 101490 81
2006-08-23 10:24 51°16.125 2°54.094 5.1 269 17.8 101490 81
2006-08-23 10:25 51°16.12 2°54.113 4.7 267 17.8 101490 81
2006-08-23 10:26 51°16.115 2°54.132 4.4 266 17.9 101490 80
2006-08-23 10:27 51°16.111 2°54.152 4.4 267 17.9 101490 81
2006-08-23 10:28 51°16.106 2°54.171 5.9 43 18 101490 82
2006-08-23 10:29 51°16.102 2°54.193 5 268 17.9 101480 81
2006-08-23 10:30 51°16.098 2°54.214 5.5 265 17.9 101490 81
2006-08-23 10:31 51°16.093 2°54.237 5.4 266 17.9 101490 80
2006-08-23 10:32 51°16.089 2°54.26 5.9 269 17.9 101490 79
2006-08-23 10:33 51°16.086 2°54.284 5.6 270 17.9 101480 79
2006-08-23 10:34 51°16.082 2°54.308 4.4 267 18 101490 79
2006-08-23 10:35 51°16.079 2°54.333 4.2 263 18 101480 79
2006-08-23 10:36 51°16.076 2°54.358 5.7 267 18 101480 79
2006-08-23 10:37 51°16.073 2°54.384 4.7 267 18.1 101490 79
2006-08-23 10:38 51°16.071 2°54.409 5.1 268 18.2 101480 80
2006-08-23 10:39 51°16.069 2°54.435 5.1 264 18.2 101480 79
2006-08-23 10:40 51°16.067 2°54.462 3.7 265 18.2 101470 79
2006-08-23 10:41 51°16.065 2°54.49 5.7 269 18.2 101470 80
2006-08-23 10:42 51°16.064 2°54.519 4.7 269 18.2 101470 80
2006-08-23 10:43 51°16.063 2°54.547 3.7 265 18.2 101470 80
2006-08-23 10:44 51°16.062 2°54.576 4.5 268 18.3 101470 81
2006-08-23 10:45 51°16.061 2°54.607 4.4 268 18.3 101470 81
2006-08-23 10:46 51°16.064 2°54.637 5.2 261 18.2 101470 80
2006-08-23 10:47 51°16.07 2°54.666 5.1 253 18.2 101470 80
2006-08-23 10:48 51°16.078 2°54.694 5.1 251 18.4 101460 80
2006-08-23 10:49 51°16.092 2°54.713 5 239 18.4 101470 79
2006-08-23 10:50 51°16.107 2°54.721 4.6 229 18.5 101460 79
2006-08-23 10:51 51°16.123 2°54.717 5.2 35 18.5 101460 78
2006-08-23 10:52 51°16.139 2°54.703 5.2 34 18.4 101450 78
2006-08-23 10:53 51°16.154 2°54.684 5.5 317 18.4 101460 78
2006-08-23 10:54 51°16.173 2°54.621 7.4 320 18.4 101450 78
2006-08-23 10:55 51°16.199 2°54.441 10.5 326 18.4 101440 78
2006-08-23 10:56 51°16.216 2°54.176 10.7 326 18.4 101440 77
2006-08-23 10:57 51°16.21 2°53.904 10 328 18.3 101440 77
2006-08-23 10:58 51°16.197 2°53.735 7.5 338 18.3 101440 78
2006-08-23 10:59 51°16.154 2°53.657 6.9 337 18.3 101440 78
2006-08-23 11:00 51°16.122 2°53.597 7 335 18.3 101450 79
2006-08-23 11:01 51°16.108 2°53.546 5.5 336 18.3 101450 78
2006-08-23 11:02 51°16.099 2°53.515 5 339 18.4 101450 79
2006-08-23 11:03 51°16.096 2°53.515 4.5 344 18.3 101440 78
2006-08-23 11:04 51°16.095 2°53.526 4.1 343 18.3 101440 78
2006-08-23 11:05 51°16.094 2°53.537 5.4 346 18.3 101440 80
2006-08-23 11:06 51°16.079 2°53.527 5.5 342 18.2 101440 78
2006-08-23 11:07 51°16.055 2°53.484 5.8 336 18.1 101430 79
2006-08-23 11:08 51°16.044 2°53.449 5 342 18.2 101440 80
2006-08-23 11:09 51°16.041 2°53.452 4.7 355 18.2 101440 80
2006-08-23 11:10 51°16.039 2°53.469 4.7 359 18.1 101440 81
2006-08-23 11:11 51°16.034 2°53.488 4.8 351 18.1 101430 82
2006-08-23 11:12 51°16.03 2°53.474 5.4 325 18 101430 82
2006-08-23 11:13 51°16.037 2°53.425 6.5 333 18.1 101440 83
2006-08-23 11:14 51°16.029 2°53.358 5.7 336 18.1 101430 82
2006-08-23 11:15 51°16.024 2°53.331 4.8 340 18.2 101430 82
2006-08-23 11:16 51°16.021 2°53.34 4.2 341 18.3 101430 81
2006-08-23 11:17 51°16.012 2°53.351 4.4 343 18.2 101430 80
2006-08-23 11:18 51°15.981 2°53.325 6.8 340 18.2 101420 81
2006-08-23 11:19 51°15.949 2°53.274 5.3 335 18.3 101420 81
2006-08-23 11:20 51°15.946 2°53.248 4.8 329 18.4 101430 80
2006-08-23 11:21 51°15.942 2°53.233 4.8 339 18.5 101430 80
2006-08-23 11:22 51°15.935 2°53.22 5 336 18.6 101420 79
2006-08-23 11:23 51°15.929 2°53.211 4.6 341 18.6 101420 79
2006-08-23 11:24 51°15.93 2°53.218 4.3 334 18.7 101430 80
2006-08-23 11:25 51°15.932 2°53.227 4.7 340 18.7 101430 79
2006-08-23 11:26 51°15.918 2°53.187 6.2 337 18.7 101430 80
2006-08-23 11:27 51°15.894 2°53.136 5.4 341 18.6 101420 80
2006-08-23 11:28 51°15.892 2°53.106 4.2 331 18.6 101420 81
2006-08-23 11:29 51°15.908 2°53.106 5.1 321 18.6 101420 81
2006-08-23 11:30 51°15.922 2°53.105 5 338 18.6 101430 81
2006-08-23 11:31 51°15.899 2°53.085 6.3 347 18.5 101430 81
2006-08-23 11:32 51°15.86 2°53.033 6 333 18.3 101420 82
2006-08-23 11:33 51°15.86 2°53.004 4.2 333 18.3 101430 82
2006-08-23 11:34 51°15.866 2°53.006 4.7 335 18.4 101430 82
2006-08-23 11:35 51°15.871 2°53.023 4.1 343 18.4 101430 80
2006-08-23 11:36 51°15.86 2°53.028 6.3 352 18.4 101420 79
2006-08-23 11:37 51°15.794 2°52.976 7.3 343 18.2 101420 79
2006-08-23 11:38 51°15.744 2°52.862 7.4 340 18.3 101420 80
2006-08-23 11:39 51°15.714 2°52.793 6.1 344 18.4 101420 79
2006-08-23 11:40 51°15.694 2°52.762 5.1 339 18.4 101420 78
2006-08-23 11:41 51°15.695 2°52.743 4.5 330 18.4 101420 78
2006-08-23 11:42 51°15.709 2°52.761 4.4 327 18.4 101420 78
2006-08-23 11:43 51°15.726 2°52.787 4.7 319 18.5 101420 78
2006-08-23 11:44 51°15.748 2°52.821 4.8 32 18.5 101420 78
2006-08-23 11:45 51°15.771 2°52.863 4.5 301 18.6 101420 78
2006-08-23 11:46 51°15.813 2°52.835 7.4 329 18.6 101410 77
2006-08-23 11:47 51°15.887 2°52.753 6.5 237 18.6 101400 77
2006-08-23 11:48 51°15.993 2°52.885 1.3 33 18.6 101410 77
2006-08-23 11:49 51°15.953 2°53.073 3.9 6 18.7 101420 77
2006-08-23 11:50 51°15.85 2°53.201 4.4 6 18.5 101410 77
2006-08-23 11:51 51°15.75 2°53.334 4.3 6 18.3 101410 78
2006-08-23 11:52 51°15.651 2°53.47 4.1 4 18.2 101400 79
2006-08-23 11:53 51°15.545 2°53.557 5.2 1 18.2 101410 81
2006-08-23 11:54 51°15.435 2°53.605 6.8 354 18.1 101400 81
2006-08-23 11:55 51°15.294 2°53.6 7.7 351 18.1 101390 81
2006-08-23 11:56 51°15.134 2°53.559 8.2 344 18.1 101400 82
2006-08-23 11:57 51°14.964 2°53.501 8.4 344 18.1 101390 81
2006-08-23 11:58 51°14.799 2°53.418 8.8 345 18.1 101390 82
2006-08-23 11:59 51°14.635 2°53.318 8.8 346 18.1 101390 82
2006-08-23 12:00 51°14.477 2°53.228 8.3 349 18.1 101390 83
2006-08-23 12:01 51°14.362 2°53.11 7.6 349 18 101390 82
2006-08-23 12:02 51°14.31 2°53.01 6.6 350 18 101390 82
2006-08-23 12:03 51°14.266 2°52.941 6.3 339 18 101390 81
2006-08-23 12:04 51°14.266 2°52.868 5.3 343 18.1 101390 81
2006-08-23 12:05 51°14.271 2°52.816 5 342 18.2 101390 79
2006-08-23 12:06 51°14.282 2°52.816 4.7 349 18.4 101400 78
2006-08-23 12:07 51°14.276 2°52.815 4.5 2 18.3 101390 78
2006-08-23 12:08 51°14.238 2°52.787 5.6 348 18.2 101390 79
2006-08-23 12:09 51°14.206 2°52.717 6 347 18.3 101390 81
2006-08-23 12:10 51°14.179 2°52.689 5.2 9 18.2 101390 81
2006-08-23 12:11 51°14.176 2°52.725 4.3 17 18.1 101390 81
2006-08-23 12:12 51°14.149 2°52.8 1.9 32 18.2 101390 80
2006-08-23 12:13 51°14.176 2°53.026 4.4 238 18.3 101400 81
2006-08-23 12:14 51°14.334 2°53.122 8.7 319 18.4 101390 80
2006-08-23 12:15 51°14.52 2°53.032 9.7 318 18.5 101380 80
2006-08-23 12:16 51°14.713 2°52.929 9.3 319 18.6 101380 79
2006-08-23 12:17 51°14.91 2°52.837 9.3 318 18.5 101380 77
2006-08-23 12:18 51°15.102 2°52.737 9.1 319 18.6 101380 78
2006-08-23 12:19 51°15.272 2°52.65 7.6 317 18.7 101370 78
2006-08-23 12:20 51°15.402 2°52.582 7.9 317 18.6 101380 78
2006-08-23 12:21 51°15.474 2°52.498 7.1 324 18.6 101380 78
2006-08-23 12:22 51°15.523 2°52.433 6.3 321 18.6 101370 78
2006-08-23 12:23 51°15.554 2°52.408 4.9 331 18.6 101380 77
2006-08-23 12:24 51°15.573 2°52.445 4.9 330 18.6 101380 77
2006-08-23 12:25 51°15.59 2°52.454 6.3 338 18.6 101380 77
2006-08-23 12:26 51°15.552 2°52.366 7.9 345 18.6 101370 77
2006-08-23 12:27 51°15.474 2°52.216 8.8 344 18.5 101370 78
2006-08-23 12:28 51°15.37 2°52.061 8.3 344 18.4 101360 78
2006-08-23 12:29 51°15.296 2°51.93 6.8 349 18.5 101370 80
2006-08-23 12:30 51°15.261 2°51.866 5.5 351 18.3 101370 79
2006-08-23 12:31 51°15.236 2°51.838 5 353 18.3 101380 80
2006-08-23 12:32 51°15.222 2°51.819 4.8 353 18.1 101380 81
2006-08-23 12:33 51°15.216 2°51.808 4.7 349 18.1 101380 81
2006-08-23 12:34 51°15.219 2°51.823 3.5 360 18.1 101370 80
2006-08-23 12:35 51°15.224 2°51.855 5.7 356 18.1 101380 80
2006-08-23 12:36 51°15.148 2°51.773 7.7 343 18.1 101370 80
2006-08-23 12:37 51°15.093 2°51.611 7.4 341 18.2 101370 81
2006-08-23 12:38 51°15.043 2°51.501 5.9 343 18.3 101360 79
2006-08-23 12:39 51°15.03 2°51.445 5.1 344 18.4 101370 80
2006-08-23 12:40 51°15.032 2°51.451 4.5 358 18.5 101370 80
2006-08-23 12:41 51°15.017 2°51.47 4 7 18.4 101370 79
2006-08-23 12:42 51°14.929 2°51.581 1.9 17 18.3 101370 79
2006-08-23 12:43 51°14.933 2°51.829 2.6 39 18.4 101370 80
2006-08-23 12:44 51°14.984 2°52.131 2.7 37 18.5 101370 80
2006-08-23 12:45 51°15.026 2°52.404 2.1 254 18.6 101370 79
2006-08-23 12:46 51°15.058 2°52.598 1.5 37 18.7 101370 78
2006-08-23 12:47 51°15.083 2°52.757 2.1 34 18.7 101370 77
2006-08-23 12:48 51°15.11 2°52.893 2.8 34 18.8 101370 77
2006-08-23 12:49 51°15.129 2°52.957 3.6 32 18.8 101370 75
2006-08-23 12:50 51°15.142 2°52.983 3.5 32 18.7 101370 75
2006-08-23 12:51 51°15.13 2°53.076 2.6 23 18.6 101370 76
2006-08-23 12:52 51°15.038 2°53.078 7.5 349 18.6 101360 76
2006-08-23 12:53 51°14.964 2°52.893 8.9 344 18.5 101350 76
2006-08-23 12:54 51°14.916 2°52.666 8.3 343 18.6 101340 77
2006-08-23 12:55 51°14.852 2°52.457 8.2 342 18.6 101350 78
2006-08-23 12:56 51°14.821 2°52.333 5.9 355 18.7 101350 77
2006-08-23 12:57 51°14.784 2°52.29 6.3 350 18.5 101360 77
2006-08-23 12:58 51°14.779 2°52.254 4.8 332 18.4 101350 77
2006-08-23 12:59 51°14.794 2°52.253 5.3 328 18.5 101350 78
2006-08-23 13:00 51°14.796 2°52.179 7.5 352 18.6 101350 77
2006-08-23 13:01 51°14.739 2°52.084 7 357 18.5 101350 78
2006-08-23 13:02 51°14.691 2°52.041 5.3 3 18.4 101350 79
2006-08-23 13:03 51°14.666 2°52.021 4.9 360 18.3 101350 80
2006-08-23 13:04 51°14.667 2°52.037 4.7 359 18.3 101360 80
2006-08-23 13:05 51°14.67 2°52.056 3.8 5 18.2 101360 81
2006-08-23 13:06 51°14.669 2°52.017 7.2 337 18.2 101350 81
2006-08-23 13:07 51°14.761 2°51.927 8 39 18.3 101350 81
2006-08-23 13:08 51°14.873 2°52.1 3 247 18.4 101350 81
2006-08-23 13:09 51°14.838 2°52.405 1.5 320 18.5 101360 81
2006-08-23 13:10 51°14.79 2°52.732 1.7 334 18.6 101360 81
2006-08-23 13:11 51°14.74 2°53.058 1.9 326 18.7 101360 81
2006-08-23 13:12 51°14.689 2°53.382 1.8 334 18.8 101360 80
2006-08-23 13:13 51°14.637 2°53.706 2 325 18.9 101360 80
2006-08-23 13:14 51°14.583 2°54.038 2.4 326 19.1 101360 80
2006-08-23 13:15 51°14.521 2°54.364 2.7 326 19 101360 78
2006-08-23 13:16 51°14.455 2°54.686 2.4 332 19 101360 77
2006-08-23 13:17 51°14.373 2°54.998 2.5 345 19 101360 77
2006-08-23 13:18 51°14.26 2°55.254 2.9 346 18.9 101360 76
2006-08-23 13:19 51°14.119 2°55.421 3 3 18.8 101360 78
2006-08-23 13:20 51°14.005 2°55.505 1.6 7 18.8 101350 79
2006-08-23 13:21 51°13.882 2°55.591 3 9 18.8 101350 78
2006-08-23 13:22 51°13.767 2°55.689 1.4 329 18.9 101350 78
2006-08-23 13:23 51°13.698 2°55.8 1.1 254 19 101350 77
2006-08-23 13:24 51°13.652 2°55.905 1.6 38 19.1 101350 78
2006-08-23 13:25 51°13.617 2°56.004 1.8 40 19.3 101350 77
2006-08-23 13:26 51°13.603 2°56.083 3.7 35 19.3 101350 76
2006-08-23 13:27 51°13.601 2°56.095 2.8 38 19.2 101350 75
2006-08-23 13:28 51°13.602 2°56.098 3.7 36 19.2 101350 75
2006-08-23 13:29 51°13.602 2°56.099 2.3 34 19.1 101350 74